Location: Rocktram
(38.2574°N, 122.2805°W)
Time: 21:00:41
(UTC+00:00)

CZ-2C R/B - Pass Details

Date: 30 March 2020
Orbit: 639 x 705 km, 98.4° (Epoch: 30 May)

Event Time Altitude Azimuth Distance (km) Brightness Sun altitude
Rises 03:23:06 0° 23° (NNE) 3,096 7.1 -11.0°
Reaches altitude 10° 03:25:34 10° 33° (NNE) 2,167 6.2 -11.5°
Maximum altitude 03:29:51 33° 97° (E) 1,158 4.4 -12.3°
Drops below altitude 10° 03:34:03 10° 162° (SSE) 2,123 6.0 -13.1°
Sets 03:36:27 0° 171° (S) 3,023 6.8 -13.6°
